Location: Newark
(40.4667°N, 5.6000°W)
Time: 13:30:31
(UTC+00:00)

N. Korean satellite - Visible Passes

Search period start: 18 March 2019 00:00
Search period end: 28 March 2019 00:00
Orbit: 455 x 511 km, 97.2° (Epoch: 18 March)

Date Brightness Start Highest point End Pass type
(mag) Time Alt. Az. Time Alt. Az. Time Alt. Az.
19 Mar 9.2 05:57:05 10° NE 06:00:06 26° E 06:03:08 10° SSE visible
20 Mar 10.0 05:33:25 10° ENE 05:35:09 13° E 05:36:54 10° ESE visible
23 Mar 9.5 05:51:22 10° NE 05:54:15 23° E 05:57:08 10° SSE visible
24 Mar 10.3 05:28:04 10° ENE 05:29:16 11° E 05:30:27 10° ESE visible
27 Mar 9.7 05:45:38 10° NE 05:48:19 20° E 05:51:02 10° SE visible
